Regional Weather Roundup
Issued by NWS

Home | Current Version | Previous Version | Text Only | Print | Product List | Glossary Off
Versions: 1 2 3 4 5 6 7 8 9 10 11 12 13 14 15 16 17 18 19 20 21 22 23 24 25 26 27

000
ASUS45 KBOU 291207
RWRCO

WEATHER ROUNDUP FOR COLORADO
NATIONAL WEATHER SERVICE DENVER/BOULDER CO
600 AM MDT MON AUG 29 2016

NOTE: "FAIR" INDICATES FEW OR NO CLOUDS BELOW 12000 FEET WITH NO
SIGNIFICANT WEATHER AND/OR OBSTRUCTIONS TO VISIBILITY.

COZ001>005-013-030-031-291300-
...NORTHWEST COLORADO...

CITY           SKY/WX    TMP DP  RH WIND       PRES   REMARKS
CRAIG          FAIR      41  36  82 W5        30.35R
HAYDEN         FAIR      48  36  61 E10       30.36S
MEEKER         FAIR      42  38  85 E3        30.36R
MOUNT WERNER   NOT AVBL
STEAMBOAT SPGS FAIR      42  36  79 CALM      30.38S
WALDEN         FAIR      34  30  86 SE6       30.48S WCI  29
$$

COZ006>008-011-291300-
...WEST CENTRAL VALLEYS...

CITY           SKY/WX    TMP DP  RH WIND       PRES   REMARKS
GRAND JUNCTION FAIR      56  45  66 SE9       30.27R
MONTROSE       FAIR      52  44  74 S8        30.34R
EAGLE          FAIR      48  45  87 CALM      30.43R
RIFLE          FAIR      53  49  86 S3        30.32S
DELTA          FAIR      57  45  64 CALM      30.31
NUCLA          FAIR     N/A N/A N/A E9        30.35S
$$

COZ017>023-064>068-291300-
...SOUTHWEST COLORADO...

CITY           SKY/WX    TMP DP  RH WIND       PRES   REMARKS
DURANGO        FAIR      47  40  76 CALM      30.36R
CORTEZ         FAIR      50  43  77 SE7       30.31R
PAGOSA SPRINGS CLOUDY    51  46  84 CALM      30.45S
TELLURIDE      FAIR      45  40  81 SE5       30.50R
WOLF CREEK PAS CLOUDY    34  34 100 N9        30.69R FOG     WCI  26
$$

COZ009-010-012-014-032>034-037-058>063-291300-
...CENTRAL COLORADO...

CITY           SKY/WX    TMP DP  RH WIND       PRES   REMARKS
ASPEN          FAIR      46  40  79 S5        30.43R
BUENA VISTA    CLOUDY    49  46  87 NW3       30.48F
COPPER MTN     CLOUDY    45  32  61 CALM      30.67S
BERTHOUD PASS  CLOUDY    37  27  65 E15G25    30.70R
COTTONWOOD PAS MOCLDY    46  43  87 W6        30.56F
GUNNISON       FAIR      46  39  76 CALM      30.48S
KREMMLING      FAIR      41  37  87 CALM      30.47R
LEADVILLE      MOCLDY    40  38  93 SE3       30.56S
MONARCH PASS   MOCLDY    36  34  93 NE6       30.74S FOG
SALIDA         FAIR      51  48  89 CALM      30.53S
SUNLIGHT       MOCLDY    45  36  70 SW3       30.62S
WILKERSON PASS CLOUDY    37  36  93 SE6       30.64F
$$

COZ069>075-291300-
...SAN LUIS VALLEY/SANGRE DE CRISTO MOUNTAINS...

CITY           SKY/WX    TMP DP  RH WIND       PRES   REMARKS
ALAMOSA        FAIR      46  45  96 W7        30.43R
LA VETA PASS   NOT AVBL
SAGUACHE       FAIR      50  43  76 NW21G28   30.40F
$$

COZ035-036-038>040-291300-
...NORTHERN COLORADO FRONT RANGE...

CITY           SKY/WX    TMP DP  RH WIND       PRES   REMARKS
DENVER INTL AP MOCLDY    65  44  46 SW13      30.25F
DMNS CITY PARK   N/A     64  44  47 SW5G10    30.25S
AURORA         MOCLDY    63  46  53 SW13G18   30.27F
FRONT RANGE AP NOT AVBL
ERIE MUNI ARPT FAIR      65  41  41 CALM      30.24R
BOULDER MUN AP FAIR      63  41  45 CALM      30.24S
CENTENNIAL     MOCLDY    62  43  49 SW15      30.29S
BROOMFIELD     FAIR      66  41  39 S8        30.28R
FORT COLLINS   FAIR      57  48  72 N7        30.24S
LONGMONT       FAIR      60  47  63 CALM      30.25S
$$

COZ041-046-047-076>085-087-088-291300-
...PIKES PEAK/PALMER DIVIDE AND SOUTHERN FOOTHILLS...

CITY           SKY/WX    TMP DP  RH WIND       PRES   REMARKS
COLO. SPRINGS  MOCLDY    57  48  72 N3        30.30F
A. F. ACADEMY  FAIR      55  49  80 N10       30.32R
SCHRIEVER AFB  NOT AVBL
ELLICOTT       NOT AVBL
FALCON         FAIR      55  46  71 NW7       30.34S
FORT CARSON    FAIR      54  49  83 W1        30.28R
LIMON          FAIR      53  50  89 NW3       30.27R
MONUMENT HILL  FAIR      52  45  76 W6        30.37R
TRINIDAD       FAIR      54  47  77 S3        30.33S
$$

COZ042>045-048>051-090-091-291300-
...NORTHEAST COLORADO...

CITY           SKY/WX    TMP DP  RH WIND       PRES   REMARKS
GREELEY ARPT   FAIR      61  48  63 N7        30.23S
AKRON          FAIR      61  48  62 NW9       30.24R
BURLINGTON     FAIR      59  55  87 CALM      30.22R
WRAY           NOT AVBL
STERLING       FAIR      54  50  87 CALM      30.20S
HOLYOKE        FAIR      59  54  82 CALM      30.20R
FORT MORGAN    FAIR      57  49  73 NW6       30.24R
$$

COZ086-089-092>099-291300-
...SOUTHEAST COLORADO...

CITY           SKY/WX    TMP DP  RH WIND       PRES   REMARKS
PUEBLO         FAIR      63  50  62 W16       30.23S
LA JUNTA       FAIR      61  51  70 W12       30.22R
LAMAR          FAIR      60  57  89 W3        30.16R
SPRINGFIELD      N/A     60  55  83 W8        30.21F
$$




USA.gov is the U.S. government's official web portal to all federal, state and local government web resources and services.